Location: Gleizolles
(44.4833°N, 6.7667°E)
Time: 12:53:36
(UTC+00:00)

Tiros 1 - All Passes

Search period start: 25 June 2024 00:00
Search period end: 05 July 2024 00:00
Orbit: 624 x 657 km, 48.4° (Epoch: 25 June)

Date Brightness Start Highest point End Pass type
(mag) Time Alt. Az. Time Alt. Az. Time Alt. Az.
25 Jun - 01:36:56 10° WNW 01:41:27 52° N 01:46:00 10° E visible
25 Jun - 03:19:07 10° WNW 03:23:46 89° SSW 03:28:27 10° ESE daylight
25 Jun - 05:01:38 10° W 05:05:26 25° SW 05:09:16 10° SSE daylight
25 Jun - 20:56:21 10° S 20:59:24 18° SE 21:02:28 10° E visible
25 Jun - 22:36:18 10° SW 22:40:51 71° SSE 22:45:27 10° ENE visible
26 Jun - 00:18:33 10° W 00:23:04 55° N 00:27:37 10° ENE visible
26 Jun - 02:00:57 10° WNW 02:05:33 61° NNE 02:10:10 10° E visible
26 Jun - 03:43:06 10° WNW 03:47:37 53° SSW 03:52:09 10° SE daylight
26 Jun - 05:27:03 10° WSW 05:28:54 12° SW 05:30:46 10° SSW daylight
26 Jun - 21:18:48 10° SSW 21:22:57 35° SE 21:27:06 10° ENE visible
26 Jun - 23:00:11 10° WSW 23:04:47 75° NNW 23:09:24 10° ENE visible
27 Jun - 00:42:41 10° WNW 00:47:11 51° N 00:51:43 10° ENE visible
27 Jun - 02:24:54 10° WNW 02:29:33 85° NNE 02:34:13 10° ESE visible
27 Jun - 04:07:18 10° W 04:11:17 28° SW 04:15:16 10° SSE daylight
27 Jun - 20:02:37 10° S 20:05:17 15° SE 20:07:57 10° E visible
27 Jun - 21:42:07 10° SW 21:46:40 64° SSE 21:51:13 10° ENE visible
27 Jun - 23:24:17 10° W 23:28:49 57° N 23:33:22 10° ENE visible
28 Jun - 01:06:44 10° WNW 01:11:17 58° N 01:15:52 10° E visible
28 Jun - 02:48:51 10° WNW 02:53:25 59° SSW 02:57:59 10° SE visible
28 Jun - 04:32:19 10° WSW 04:34:46 14° SW 04:37:14 10° SSW daylight
28 Jun - 20:24:46 10° SSW 20:28:47 30° SE 20:32:48 10° E visible
28 Jun - 22:05:57 10° WSW 22:10:32 81° NNW 22:15:09 10° ENE visible
28 Jun - 23:48:25 10° WNW 23:52:55 51° N 23:57:26 10° ENE visible
29 Jun - 01:30:41 10° WNW 01:35:18 79° NNE 01:39:58 10° ESE visible
29 Jun - 03:12:59 10° W 03:17:06 32° SW 03:21:14 10° SSE visible
29 Jun - 19:09:00 10° SSE 19:11:09 13° SE 19:13:18 10° ESE daylight
29 Jun - 20:47:58 10° SW 20:52:27 57° SSE 20:56:58 10° ENE visible
29 Jun - 22:30:02 10° W 22:34:33 59° NNW 22:39:07 10° ENE visible
30 Jun - 00:12:29 10° WNW 00:17:01 56° N 00:21:35 10° E visible
30 Jun - 01:54:37 10° WNW 01:59:12 66° SSW 02:03:48 10° SE visible
30 Jun - 03:37:44 10° W 03:40:38 16° SW 03:43:32 10° S daylight
30 Jun - 19:30:46 10° SSW 19:34:37 27° SE 19:38:28 10° E daylight
30 Jun - 21:11:43 10° WSW 21:16:18 87° NNW 21:20:55 10° ENE visible
30 Jun - 22:54:09 10° W 22:58:39 51° N 23:03:09 10° ENE visible
01 Jul - 00:36:27 10° WNW 00:41:03 73° NNE 00:45:41 10° ESE visible
01 Jul - 02:18:42 10° WNW 02:22:56 36° SW 02:27:10 10° SSE visible
01 Jul - 18:15:40 10° SSE 18:17:01 11° SE 18:18:22 10° ESE daylight
01 Jul - 19:53:49 10° SW 19:58:15 50° SSE 20:02:42 10° ENE visible
01 Jul - 21:35:44 10° W 21:40:18 62° NNW 21:44:52 10° ENE visible
01 Jul - 23:18:14 10° WNW 23:22:45 54° N 23:27:17 10° E visible
02 Jul - 01:00:23 10° WNW 01:04:58 74° SSW 01:09:35 10° ESE visible
02 Jul - 02:43:15 10° W 02:46:29 19° SW 02:49:43 10° S visible
02 Jul - 18:36:48 10° SSW 18:40:27 24° SE 18:44:06 10° E daylight
02 Jul - 20:17:28 10° WSW 20:22:04 86° SSE 20:26:41 10° ENE visible
02 Jul - 21:59:53 10° W 22:04:22 52° N 22:08:53 10° ENE visible
02 Jul - 23:42:12 10° WNW 23:46:48 68° NNE 23:51:25 10° E visible
03 Jul - 01:24:24 10° WNW 01:28:43 41° SW 01:33:05 10° SE visible
03 Jul - 18:59:41 10° SW 19:04:03 45° SSE 19:08:26 10° ENE daylight
03 Jul - 20:41:27 10° W 20:46:02 65° NNW 20:50:36 10° ENE visible
03 Jul - 22:23:58 10° WNW 22:28:29 53° N 22:32:59 10° E visible
04 Jul - 00:06:08 10° WNW 00:10:44 81° SSW 00:15:21 10° ESE visible
04 Jul - 01:48:49 10° W 01:52:19 22° SW 01:55:50 10° S visible
04 Jul - 17:42:53 10° S 17:46:17 21° SE 17:49:41 10° E daylight
04 Jul - 19:23:14 10° WSW 19:27:50 79° SSE 19:32:26 10° ENE daylight
04 Jul - 21:05:35 10° W 21:10:05 53° N 21:14:36 10° ENE visible
04 Jul - 22:47:58 10° WNW 22:52:32 64° NNE 22:57:07 10° E visible
